Chino, CA

4:33 AM PST on February 21, 2017 (GMT -0800)
Chino

Weather History for KCNO - August, 2014

Change the Weather History Date:

Tuesday, August 12, 2014

  Actual Average Record
Temperature  
Mean Temperature 78 °F -  
Max Temperature 93 °F 91 °F 107 °F (2012)
Min Temperature 64 °F 58 °F 51 °F (2010)
Cooling Degree Days 14    
Growing Degree Days 28 (Base 50)    
Moisture  
Dew Point 61 °F    
Average Humidity 60    
Maximum Humidity 90    
Minimum Humidity 35    
Precipitation  
Precipitation 0.00 in - - ()
Sea Level Pressure  
Sea Level Pressure 29.93 in    
Wind  
Wind Speed 6 mph (West)    
Max Wind Speed 20 mph    
Max Gust Speed 23 mph    
Visibility 9 miles    
Events      
Averages and records for this station are not official NWS values.
T = Trace of Precipitation, MM = Missing Value Source: NWS Daily Summary

Daily Weather History Graph

Daily Weather History Graph

Search for Another Location

Airport or City:

Trip Planner

Search our weather history database for the weather conditions in past years. The results will help you decide how hot, cold, wet, or windy it might be!

Date:

Astronomy

Aug. 12, 2014 Rise Set
Actual Time 6:10 AM PDT 7:40 PM PDT
Civil Twilight 5:43 AM PDT 8:07 PM PDT
Nautical Twilight 5:11 AM PDT 8:38 PM PDT
Astronomical Twilight 4:38 AM PDT 9:12 PM PDT
Moon 9:01 PM PDT (8/12) 8:24 AM PDT (8/12)
Length of Visible Light 14h 23m
Length of Day
13h 30m
Waning Gibbous, 94% of the Moon is Illuminated
Aug 12
Waning Gibbous
Aug 17
Last Quarter
Aug 25
New
Sep 2
First Quarter
Sep 8
Full

Hourly Weather History & Observations

Time (PDT) Temp. Heat Index Dew Point Humidity Pressure Visibility Wind Dir Wind Speed Gust Speed Precip Events Conditions
12:53 AM 69.1 °F - 62.1 °F 78% 29.95 in 7.0 mi Calm Calm - N/A   Clear
2:53 AM 69.1 °F - 62.1 °F 78% 29.95 in 8.0 mi West 6.9 mph - N/A   Scattered Clouds
3:53 AM 66.9 °F - 61.0 °F 81% 29.95 in 8.0 mi West 6.9 mph - N/A   Clear
4:53 AM 66.9 °F - 62.1 °F 84% 29.95 in 8.0 mi Calm Calm - N/A   Clear
5:53 AM 64.9 °F - 62.1 °F 90% 29.96 in 6.0 mi Calm Calm - N/A   Clear
6:53 AM 66.0 °F - 62.1 °F 87% 29.97 in 10.0 mi Calm Calm - N/A   Mostly Cloudy
8:53 AM 73.0 °F - 60.1 °F 64% 29.99 in 10.0 mi Calm Calm - N/A   Mostly Cloudy
10:53 AM 82.0 °F 82.4 °F 60.1 °F 47% 29.97 in 10.0 mi NNW 3.5 mph - N/A   Scattered Clouds
11:53 AM 88.0 °F 87.1 °F 59.0 °F 37% 29.94 in 10.0 mi West 8.1 mph - N/A   Partly Cloudy
12:53 PM 91.9 °F 92.5 °F 62.1 °F 37% 29.92 in 10.0 mi West 8.1 mph - N/A   Partly Cloudy
1:53 PM 93.9 °F 94.8 °F 62.1 °F 35% 29.89 in 10.0 mi West 12.7 mph - N/A   Partly Cloudy
2:53 PM 93.0 °F 93.8 °F 62.1 °F 36% 29.88 in 10.0 mi WSW 16.1 mph 23.0 mph N/A   Partly Cloudy
3:53 PM 90.0 °F 90.6 °F 63.0 °F 40% 29.87 in 10.0 mi West 15.0 mph - N/A   Partly Cloudy
4:53 PM 87.1 °F 87.5 °F 62.1 °F 43% 29.87 in 10.0 mi WSW 19.6 mph - N/A   Scattered Clouds
5:53 PM 82.9 °F 83.3 °F 61.0 °F 47% 29.87 in 10.0 mi WSW 18.4 mph - N/A   Scattered Clouds
6:53 PM 78.1 °F - 60.1 °F 54% 29.88 in 10.0 mi West 16.1 mph - N/A   Scattered Clouds
7:53 PM 75.0 °F - 61.0 °F 62% 29.91 in 10.0 mi West 11.5 mph - N/A   Scattered Clouds
8:53 PM 72.0 °F - 61.0 °F 68% 29.94 in 9.0 mi West 9.2 mph - N/A   Clear
11:53 PM 66.9 °F - 61.0 °F 81% 29.95 in 8.0 mi West 6.9 mph - N/A   Clear